User: anonymous   Login
Location: D�derode
(51.8092°N, 10.1065°E)
Time: 09:39:19
(UTC+00:00)
Language:

Cosmos 1842 Rocket - Orbit

View from above orbital plane
View from above orbital plane
View from above satellite
View from above satellite

Ground track
Ground track

The orbit data is extracted from the following two-line orbital elements,

1 17912U 87038B   21065.65196787  .00000099  00000-0  91411-5 0  9998
2 17912  82.5022 215.6276 0021703  77.9161 282.4483 14.83069443807989
Epoch (UTC): 06 March 2021 15:38:50
Eccentricity: 0.0021703
inclination: 82.5022°
perigee height: 604 km
apogee height: 635 km
right ascension of ascending node: 215.6276°
argument of perigee: 77.9161°
revolutions per day: 14.83069443
mean anomaly at epoch: 282.4483°
orbit number at epoch: 80798

The dashed part of the orbit path shows where the satellite is in the earth's shadow,  

DLR